Year,Month,Day,Hour,Minute,Value (Times are PST for temperature in C)
2013,10,23,00,00,6.60
2013,10,23,00,01,6.60
2013,10,23,00,02,6.60
2013,10,23,00,03,6.60
2013,10,23,00,04,6.60
2013,10,23,00,05,6.60
2013,10,23,00,06,6.60
2013,10,23,00,07,6.60
2013,10,23,00,08,6.40
2013,10,23,00,09,6.40
2013,10,23,00,10,6.40
2013,10,23,00,11,6.40
2013,10,23,00,12,6.40
2013,10,23,00,13,6.40
2013,10,23,00,16,6.40
2013,10,23,00,17,6.40
2013,10,23,00,18,6.40
2013,10,23,00,19,6.40
2013,10,23,00,20,6.40
2013,10,23,00,21,6.40
2013,10,23,00,22,6.40
2013,10,23,00,23,6.40
2013,10,23,00,24,6.40
2013,10,23,00,25,6.40
2013,10,23,00,26,6.40
2013,10,23,00,27,6.40
2013,10,23,00,28,6.40
2013,10,23,00,29,6.40
2013,10,23,00,30,6.40
2013,10,23,00,31,6.40
2013,10,23,00,32,6.40
2013,10,23,00,33,6.40
2013,10,23,00,34,6.40
2013,10,23,00,35,6.40
2013,10,23,00,36,6.40
2013,10,23,00,37,6.40
2013,10,23,00,38,6.40
2013,10,23,00,39,6.40
2013,10,23,00,40,6.40
2013,10,23,00,41,6.40
2013,10,23,00,42,6.40
2013,10,23,00,43,6.40
2013,10,23,00,44,6.40
2013,10,23,00,45,6.40
2013,10,23,00,46,6.40
2013,10,23,00,47,6.40
2013,10,23,00,48,6.40
2013,10,23,00,49,6.40
2013,10,23,00,50,6.40
2013,10,23,00,51,6.40
2013,10,23,00,52,6.40
2013,10,23,00,53,6.40
2013,10,23,00,54,6.40
2013,10,23,00,55,6.40
2013,10,23,00,56,6.40
2013,10,23,00,57,6.40
2013,10,23,00,58,6.40
2013,10,23,00,59,6.40
2013,10,23,01,00,6.40
2013,10,23,01,01,6.40
2013,10,23,01,02,6.40
2013,10,23,01,03,6.40
2013,10,23,01,04,6.40
2013,10,23,01,05,6.40
2013,10,23,01,06,6.40
2013,10,23,01,07,6.40
2013,10,23,01,08,6.40
2013,10,23,01,09,6.40
2013,10,23,01,10,6.40
2013,10,23,01,11,6.40
2013,10,23,01,12,6.40
2013,10,23,01,13,6.40
2013,10,23,01,14,6.40
2013,10,23,01,15,6.40
2013,10,23,01,16,6.40
2013,10,23,01,17,6.40
2013,10,23,01,18,6.40
2013,10,23,01,19,6.40
2013,10,23,01,20,6.60
2013,10,23,01,21,6.60
2013,10,23,01,22,6.60
2013,10,23,01,23,6.60
2013,10,23,01,24,6.60
2013,10,23,01,25,6.60
2013,10,23,01,26,6.60
2013,10,23,01,27,6.60
2013,10,23,01,28,6.60
2013,10,23,01,29,6.70
2013,10,23,01,30,6.70
2013,10,23,01,31,6.70
2013,10,23,01,32,6.70
2013,10,23,01,33,6.80
2013,10,23,01,34,6.80
2013,10,23,01,35,6.80
2013,10,23,01,36,6.80
2013,10,23,01,37,6.80
2013,10,23,01,38,6.80
2013,10,23,01,39,6.80
2013,10,23,01,40,6.80
2013,10,23,01,41,6.80
2013,10,23,01,42,6.80
2013,10,23,01,43,6.80
2013,10,23,01,44,6.80
2013,10,23,01,45,6.80
2013,10,23,01,46,6.80
2013,10,23,01,47,6.80
2013,10,23,01,48,6.80
2013,10,23,01,49,6.80
2013,10,23,01,50,6.80
2013,10,23,01,51,6.80
2013,10,23,01,52,6.80
2013,10,23,01,53,6.90
2013,10,23,01,54,6.90
2013,10,23,01,55,6.90
2013,10,23,01,56,6.90
2013,10,23,01,57,7.00
2013,10,23,01,58,7.00
2013,10,23,01,59,7.00
2013,10,23,02,00,7.00
2013,10,23,02,01,7.00
2013,10,23,02,02,7.10
2013,10,23,02,03,7.10
2013,10,23,02,04,7.10
2013,10,23,02,05,7.10
2013,10,23,02,06,7.20
2013,10,23,02,07,7.20
2013,10,23,02,08,7.20
2013,10,23,02,09,7.20
2013,10,23,02,10,7.20
2013,10,23,02,11,7.20
2013,10,23,02,12,7.20
2013,10,23,02,13,7.20
2013,10,23,02,14,7.20
2013,10,23,02,15,7.20
2013,10,23,02,16,7.20
2013,10,23,02,17,7.20
2013,10,23,02,18,7.20
2013,10,23,02,19,7.20
2013,10,23,02,20,7.20
2013,10,23,02,21,7.20
2013,10,23,02,22,7.20
2013,10,23,02,23,7.20
2013,10,23,02,24,7.20
2013,10,23,02,25,7.20
2013,10,23,02,26,7.20
2013,10,23,02,27,7.20
2013,10,23,02,28,7.20
2013,10,23,02,29,7.20
2013,10,23,02,30,7.20
2013,10,23,02,31,7.20
2013,10,23,02,32,7.20
2013,10,23,02,33,7.20
2013,10,23,02,34,7.20
2013,10,23,02,35,7.20
2013,10,23,02,36,7.20
2013,10,23,02,37,7.20
2013,10,23,02,38,7.10
2013,10,23,02,39,7.10
2013,10,23,02,40,7.10
2013,10,23,02,41,7.10
2013,10,23,02,42,7.10
2013,10,23,02,43,7.10
2013,10,23,02,44,7.10
2013,10,23,02,45,7.10
2013,10,23,02,46,7.10
2013,10,23,02,47,7.10
2013,10,23,02,48,7.10
2013,10,23,02,49,7.10
2013,10,23,02,50,7.10
2013,10,23,02,51,7.10
2013,10,23,02,52,7.10
2013,10,23,02,53,7.10
2013,10,23,02,54,7.10
2013,10,23,02,55,7.00
2013,10,23,02,56,7.00
2013,10,23,02,57,7.00
2013,10,23,02,58,7.00
2013,10,23,02,59,7.00
2013,10,23,03,00,7.00
2013,10,23,03,01,7.00
2013,10,23,03,02,7.00
2013,10,23,03,03,7.00
2013,10,23,03,04,7.00
2013,10,23,03,05,7.00
2013,10,23,03,06,7.00
2013,10,23,03,07,7.00
2013,10,23,03,08,7.00
2013,10,23,03,09,7.00
2013,10,23,03,10,7.00
2013,10,23,03,11,7.00
2013,10,23,03,12,7.00
2013,10,23,03,13,7.00
2013,10,23,03,14,7.00
2013,10,23,03,15,7.00
2013,10,23,03,16,7.00
2013,10,23,03,17,7.00
2013,10,23,03,18,7.00
2013,10,23,03,19,7.00
2013,10,23,03,20,7.00
2013,10,23,03,21,6.90
2013,10,23,03,22,6.90
2013,10,23,03,23,6.90
2013,10,23,03,24,6.90
2013,10,23,03,25,6.90
2013,10,23,03,26,6.90
2013,10,23,03,27,6.90
2013,10,23,03,28,6.80
2013,10,23,03,29,6.80
2013,10,23,03,30,6.80
2013,10,23,03,31,6.80
2013,10,23,03,32,6.80
2013,10,23,03,33,6.80
2013,10,23,03,34,6.80
2013,10,23,03,35,6.80
2013,10,23,03,36,6.80
2013,10,23,03,37,6.80
2013,10,23,03,38,6.80
2013,10,23,03,39,6.80
2013,10,23,03,40,6.80
2013,10,23,03,41,6.80
2013,10,23,03,42,6.80
2013,10,23,03,43,6.80
2013,10,23,03,44,6.80
2013,10,23,03,45,6.80
2013,10,23,03,46,6.80
2013,10,23,03,47,6.80
2013,10,23,03,48,6.80
2013,10,23,03,49,6.80
2013,10,23,03,50,6.80
2013,10,23,03,51,6.80
2013,10,23,03,52,6.80
2013,10,23,03,53,6.80
2013,10,23,03,54,6.70
2013,10,23,03,55,6.70
2013,10,23,03,56,6.70
2013,10,23,03,57,6.70
2013,10,23,03,58,6.70
2013,10,23,03,59,6.70
2013,10,23,04,00,6.70
2013,10,23,04,01,6.70
2013,10,23,04,02,6.70
2013,10,23,04,03,6.70
2013,10,23,04,04,6.70
2013,10,23,04,05,6.70
2013,10,23,04,06,6.70
2013,10,23,04,07,6.70
2013,10,23,04,08,6.70
2013,10,23,04,09,6.70
2013,10,23,04,10,6.70
2013,10,23,04,11,6.70
2013,10,23,04,12,6.70
2013,10,23,04,13,6.70
2013,10,23,04,14,6.70
2013,10,23,04,15,6.60
2013,10,23,04,16,6.60
2013,10,23,04,17,6.60
2013,10,23,04,18,6.60
2013,10,23,04,19,6.60
2013,10,23,04,20,6.60
2013,10,23,04,21,6.60
2013,10,23,04,22,6.60
2013,10,23,04,23,6.60
2013,10,23,04,24,6.60
2013,10,23,04,25,6.60
2013,10,23,04,26,6.60
2013,10,23,04,27,6.60
2013,10,23,04,28,6.60
2013,10,23,04,29,6.60
2013,10,23,04,30,6.60
2013,10,23,04,31,6.60
2013,10,23,04,32,6.60
2013,10,23,04,33,6.60
2013,10,23,04,34,6.60
2013,10,23,04,35,6.60
2013,10,23,04,36,6.60
2013,10,23,04,37,6.60
2013,10,23,04,38,6.60
2013,10,23,04,39,6.60
2013,10,23,04,40,6.60
2013,10,23,04,41,6.60
2013,10,23,04,42,6.60
2013,10,23,04,43,6.60
2013,10,23,04,44,6.60
2013,10,23,04,45,6.60
2013,10,23,04,46,6.60
2013,10,23,04,47,6.60
2013,10,23,04,48,6.60
2013,10,23,04,49,6.60
2013,10,23,04,50,6.60
2013,10,23,04,51,6.60
2013,10,23,04,52,6.60
2013,10,23,04,53,6.60
2013,10,23,04,54,6.60
2013,10,23,04,55,6.60
2013,10,23,04,56,6.60
2013,10,23,04,57,6.60
2013,10,23,04,58,6.60
2013,10,23,04,59,6.60
2013,10,23,05,00,6.60
2013,10,23,05,01,6.60
2013,10,23,05,02,6.60
2013,10,23,05,03,6.60
2013,10,23,05,04,6.60
2013,10,23,05,05,6.60
2013,10,23,05,06,6.60
2013,10,23,05,07,6.60
2013,10,23,05,08,6.60
2013,10,23,05,09,6.60
2013,10,23,05,10,6.60
2013,10,23,05,11,6.60
2013,10,23,05,12,6.60
2013,10,23,05,13,6.60
2013,10,23,05,14,6.50
2013,10,23,05,15,6.40
2013,10,23,05,16,6.40
2013,10,23,05,17,6.40
2013,10,23,05,18,6.40
2013,10,23,05,19,6.40
2013,10,23,05,20,6.40
2013,10,23,05,21,6.40
2013,10,23,05,22,6.40
2013,10,23,05,23,6.40
2013,10,23,05,24,6.40
2013,10,23,05,25,6.40
2013,10,23,05,26,6.40
2013,10,23,05,27,6.40
2013,10,23,05,28,6.40
2013,10,23,05,29,6.40
2013,10,23,05,30,6.40
2013,10,23,05,31,6.40
2013,10,23,05,32,6.40
2013,10,23,05,33,6.40
2013,10,23,05,34,6.40
2013,10,23,05,35,6.40
2013,10,23,05,36,6.40
2013,10,23,05,37,6.40
2013,10,23,05,38,6.40
2013,10,23,05,39,6.40
2013,10,23,05,40,6.40
2013,10,23,05,41,6.30
2013,10,23,05,42,6.30
2013,10,23,05,43,6.30
2013,10,23,05,44,6.30
2013,10,23,05,45,6.30
2013,10,23,05,46,6.30
2013,10,23,05,47,6.30
2013,10,23,05,48,6.20
2013,10,23,05,49,6.20
2013,10,23,05,50,6.20
2013,10,23,05,51,6.20
2013,10,23,05,52,6.20
2013,10,23,05,53,6.20
2013,10,23,05,54,6.20
2013,10,23,05,55,6.20
2013,10,23,05,56,6.20
2013,10,23,05,57,6.20
2013,10,23,05,58,6.20
2013,10,23,05,59,6.20
2013,10,23,06,00,6.20
2013,10,23,06,01,6.20
2013,10,23,06,02,6.10
2013,10,23,06,03,6.10
2013,10,23,06,04,6.10
2013,10,23,06,05,6.10
2013,10,23,06,06,6.10
2013,10,23,06,07,6.10
2013,10,23,06,08,6.10
2013,10,23,06,09,6.10
2013,10,23,06,10,6.10
2013,10,23,06,11,6.10
2013,10,23,06,12,6.10
2013,10,23,06,13,6.10
2013,10,23,06,14,6.10
2013,10,23,06,15,6.10
2013,10,23,06,16,6.10
2013,10,23,06,17,6.10
2013,10,23,06,18,6.10
2013,10,23,06,19,6.00
2013,10,23,06,20,6.00
2013,10,23,06,21,6.00
2013,10,23,06,22,6.00
2013,10,23,06,23,6.00
2013,10,23,06,24,6.00
2013,10,23,06,25,6.00
2013,10,23,06,26,6.00
2013,10,23,06,27,6.00
2013,10,23,06,28,6.00
2013,10,23,06,29,5.90
2013,10,23,06,30,5.90
2013,10,23,06,31,5.90
2013,10,23,06,32,5.90
2013,10,23,06,33,5.90
2013,10,23,06,34,5.90
2013,10,23,06,35,5.90
2013,10,23,06,36,5.90
2013,10,23,06,37,5.90
2013,10,23,06,38,5.90
2013,10,23,06,39,5.90
2013,10,23,06,40,5.90
2013,10,23,06,41,5.90
2013,10,23,06,42,5.90
2013,10,23,06,43,5.90
2013,10,23,06,44,6.00
2013,10,23,06,45,6.00
2013,10,23,06,46,6.00
2013,10,23,06,47,6.00
2013,10,23,06,48,6.00
2013,10,23,06,49,6.00
2013,10,23,06,50,6.00
2013,10,23,06,51,6.00
2013,10,23,06,52,6.00
2013,10,23,06,53,6.00
2013,10,23,06,54,6.00
2013,10,23,06,55,6.00
2013,10,23,06,56,6.00
2013,10,23,06,57,6.00
2013,10,23,06,58,6.00
2013,10,23,06,59,6.00
2013,10,23,07,00,6.00
2013,10,23,07,01,6.00
2013,10,23,07,02,6.00
2013,10,23,07,03,6.00
2013,10,23,07,04,6.10
2013,10,23,07,05,6.10
2013,10,23,07,06,6.10
2013,10,23,07,07,6.10
2013,10,23,07,08,6.10
2013,10,23,07,09,6.10
2013,10,23,07,10,6.20
2013,10,23,07,11,6.20
2013,10,23,07,12,6.20
2013,10,23,07,13,6.20
2013,10,23,07,14,6.20
2013,10,23,07,15,6.20
2013,10,23,07,16,6.20
2013,10,23,07,17,6.20
2013,10,23,07,18,6.20
2013,10,23,07,19,6.20
2013,10,23,07,20,6.20
2013,10,23,07,21,6.20
2013,10,23,07,22,6.20
2013,10,23,07,23,6.20
2013,10,23,07,24,6.20
2013,10,23,07,25,6.20
2013,10,23,07,26,6.20
2013,10,23,07,27,6.20
2013,10,23,07,28,6.20
2013,10,23,07,29,6.20
2013,10,23,07,30,6.20
2013,10,23,07,31,6.20
2013,10,23,07,32,6.20
2013,10,23,07,33,6.20
2013,10,23,07,34,6.20
2013,10,23,07,35,6.20
2013,10,23,07,36,6.20
2013,10,23,07,37,6.20
2013,10,23,07,38,6.20
2013,10,23,07,39,6.20
2013,10,23,07,40,6.20
2013,10,23,07,41,6.20
2013,10,23,07,42,6.20
2013,10,23,07,43,6.20
2013,10,23,07,44,6.20
2013,10,23,07,45,6.20
2013,10,23,07,46,6.20
2013,10,23,07,47,6.20
2013,10,23,07,48,6.20
2013,10,23,07,49,6.20
2013,10,23,07,50,6.20
2013,10,23,07,51,6.20
2013,10,23,07,52,6.20
2013,10,23,07,53,6.20
2013,10,23,07,54,6.30
2013,10,23,07,55,6.30
2013,10,23,07,56,6.30
2013,10,23,07,57,6.30
2013,10,23,07,58,6.30
2013,10,23,07,59,6.30
2013,10,23,08,00,6.30
2013,10,23,08,01,6.30
2013,10,23,08,02,6.30
2013,10,23,08,03,6.30
2013,10,23,08,04,6.30
2013,10,23,08,05,6.30
2013,10,23,08,06,6.30
2013,10,23,08,07,6.30
2013,10,23,08,08,6.30
2013,10,23,08,09,6.30
2013,10,23,08,10,6.30
2013,10,23,08,11,6.30
2013,10,23,08,12,6.20
2013,10,23,08,13,6.20
2013,10,23,08,14,6.20
2013,10,23,08,15,6.20
2013,10,23,08,16,6.20
2013,10,23,08,17,6.20
2013,10,23,08,18,6.20
2013,10,23,08,19,6.20
2013,10,23,08,20,6.20
2013,10,23,08,21,6.20
2013,10,23,08,22,6.20
2013,10,23,08,23,6.20
2013,10,23,08,24,6.20
2013,10,23,08,25,6.20
2013,10,23,08,26,6.20
2013,10,23,08,27,6.20
2013,10,23,08,28,6.20
2013,10,23,08,29,6.10
2013,10,23,08,30,6.10
2013,10,23,08,31,6.10
2013,10,23,08,32,6.10
2013,10,23,08,33,6.10
2013,10,23,08,34,6.10
2013,10,23,08,35,6.10
2013,10,23,08,36,6.10
2013,10,23,08,37,6.10
2013,10,23,08,38,6.10
2013,10,23,08,39,6.10
2013,10,23,08,40,6.10
2013,10,23,08,41,6.10
2013,10,23,08,42,6.10
2013,10,23,08,43,6.10
2013,10,23,08,44,6.10
2013,10,23,08,45,6.10
2013,10,23,08,46,6.20
2013,10,23,08,47,6.20
2013,10,23,08,48,6.20
2013,10,23,08,49,6.20
2013,10,23,08,50,6.20
2013,10,23,08,51,6.20
2013,10,23,08,52,6.20
2013,10,23,08,53,6.30
2013,10,23,08,54,6.30
2013,10,23,08,55,6.30
2013,10,23,08,56,6.30
2013,10,23,08,57,6.40
2013,10,23,08,58,6.40
2013,10,23,08,59,6.40
2013,10,23,09,00,6.40
2013,10,23,09,01,6.40
2013,10,23,09,02,6.40
2013,10,23,09,03,6.50
2013,10,23,09,04,6.60
2013,10,23,09,05,6.60
2013,10,23,09,06,6.60
2013,10,23,09,07,6.60
2013,10,23,09,08,6.60
2013,10,23,09,09,6.60
2013,10,23,09,10,6.60
2013,10,23,09,11,6.60
2013,10,23,09,12,6.60
2013,10,23,09,13,6.60
2013,10,23,09,14,6.60
2013,10,23,09,15,6.60
2013,10,23,09,16,6.60
2013,10,23,09,17,6.60
2013,10,23,09,18,6.60
2013,10,23,09,19,6.70
2013,10,23,09,20,6.70
2013,10,23,09,21,6.70
2013,10,23,09,22,6.70
2013,10,23,09,23,6.80
2013,10,23,09,24,6.80
2013,10,23,09,25,6.80
2013,10,23,09,26,6.80
2013,10,23,09,27,6.80
2013,10,23,09,28,6.80
2013,10,23,09,29,6.80
2013,10,23,09,30,6.90
2013,10,23,09,31,6.90
2013,10,23,09,32,6.90
2013,10,23,09,33,7.00
2013,10,23,09,34,7.00
2013,10,23,09,35,7.10
2013,10,23,09,36,7.10
2013,10,23,09,37,7.20
2013,10,23,09,38,7.20
2013,10,23,09,39,7.30
2013,10,23,09,40,7.30
2013,10,23,09,41,7.30
2013,10,23,09,42,7.40
2013,10,23,09,43,7.40
2013,10,23,09,44,7.40
2013,10,23,09,45,7.50
2013,10,23,09,46,7.50
2013,10,23,09,47,7.50
2013,10,23,09,48,7.50
2013,10,23,09,49,7.50
2013,10,23,09,50,7.50
2013,10,23,09,51,7.50
2013,10,23,09,52,7.50
2013,10,23,09,53,7.60
2013,10,23,09,54,7.60
2013,10,23,09,55,7.70
2013,10,23,09,56,7.70
2013,10,23,09,57,7.70
2013,10,23,09,58,7.70
2013,10,23,09,59,7.70
2013,10,23,10,00,7.80
2013,10,23,10,01,7.90
2013,10,23,10,02,8.00
2013,10,23,10,03,8.00
2013,10,23,10,04,8.00
2013,10,23,10,05,8.00
2013,10,23,10,06,8.00
2013,10,23,10,07,8.00
2013,10,23,10,08,8.00
2013,10,23,10,09,8.00
2013,10,23,10,10,8.10
2013,10,23,10,11,8.10
2013,10,23,10,12,8.20
2013,10,23,10,13,8.20
2013,10,23,10,14,8.20
2013,10,23,10,15,8.20
2013,10,23,10,16,8.30
2013,10,23,10,17,8.20
2013,10,23,10,18,8.20
2013,10,23,10,19,8.20
2013,10,23,10,20,8.20
2013,10,23,10,21,8.20
2013,10,23,10,22,8.20
2013,10,23,10,23,8.30
2013,10,23,10,24,8.50
2013,10,23,10,25,8.60
2013,10,23,10,26,8.60
2013,10,23,10,27,8.50
2013,10,23,10,28,8.40
2013,10,23,10,29,8.40
2013,10,23,10,30,8.30
2013,10,23,10,31,8.40
2013,10,23,10,32,8.50
2013,10,23,10,33,8.50
2013,10,23,10,34,8.60
2013,10,23,10,35,8.70
2013,10,23,10,36,8.70
2013,10,23,10,37,8.80
2013,10,23,10,38,8.80
2013,10,23,10,39,8.90
2013,10,23,10,40,9.00
2013,10,23,10,41,9.00
2013,10,23,10,42,9.00
2013,10,23,10,43,9.10
2013,10,23,10,44,9.10
2013,10,23,10,45,9.10
2013,10,23,10,46,9.10
2013,10,23,10,47,9.20
2013,10,23,10,48,9.20
2013,10,23,10,49,9.20
2013,10,23,10,50,9.20
2013,10,23,10,51,9.20
2013,10,23,10,52,9.30
2013,10,23,10,53,9.30
2013,10,23,10,54,9.30
2013,10,23,10,55,9.30
2013,10,23,10,56,9.30
2013,10,23,10,57,9.30
2013,10,23,10,58,9.30
2013,10,23,10,59,9.30
2013,10,23,11,00,9.30
2013,10,23,11,01,9.20
2013,10,23,11,02,9.20
2013,10,23,11,03,9.20
2013,10,23,11,04,9.30
2013,10,23,11,05,9.50
2013,10,23,11,06,9.50
2013,10,23,11,07,9.50
2013,10,23,11,08,9.40
2013,10,23,11,09,9.50
2013,10,23,11,10,9.50
2013,10,23,11,11,9.60
2013,10,23,11,12,9.60
2013,10,23,11,13,9.60
2013,10,23,11,14,9.60
2013,10,23,11,15,9.70
2013,10,23,11,16,9.70
2013,10,23,11,17,9.70
2013,10,23,11,18,9.70
2013,10,23,11,19,9.80
2013,10,23,11,20,9.80
2013,10,23,11,21,9.90
2013,10,23,11,22,9.90
2013,10,23,11,23,9.90
2013,10,23,11,24,10.00
2013,10,23,11,25,10.10
2013,10,23,11,26,10.10
2013,10,23,11,27,10.10
2013,10,23,11,28,10.10
2013,10,23,11,29,10.10
2013,10,23,11,30,10.20
2013,10,23,11,31,10.20
2013,10,23,11,32,10.30
2013,10,23,11,33,10.40
2013,10,23,11,34,10.40
2013,10,23,11,35,10.30
2013,10,23,11,36,10.30
2013,10,23,11,37,10.20
2013,10,23,11,38,10.20
2013,10,23,11,39,10.10
2013,10,23,11,40,10.10
2013,10,23,11,41,10.10
2013,10,23,11,42,10.10
2013,10,23,11,43,10.10
2013,10,23,11,44,10.10
2013,10,23,11,45,10.20
2013,10,23,11,46,10.30
2013,10,23,11,47,10.30
2013,10,23,11,48,10.30
2013,10,23,11,49,10.20
2013,10,23,11,50,10.20
2013,10,23,11,51,10.20
2013,10,23,11,52,10.20
2013,10,23,11,53,10.20
2013,10,23,11,54,10.30
2013,10,23,11,55,10.30
2013,10,23,11,56,10.40
2013,10,23,11,57,10.50
2013,10,23,11,58,10.60
2013,10,23,11,59,10.70
2013,10,23,12,00,10.80
2013,10,23,12,01,10.80
2013,10,23,12,02,10.90
2013,10,23,12,03,10.90
2013,10,23,12,04,10.90
2013,10,23,12,05,10.90
2013,10,23,12,06,10.90
2013,10,23,12,07,11.00
2013,10,23,12,08,11.10
2013,10,23,12,09,11.10
2013,10,23,12,10,11.10
2013,10,23,12,11,11.10
2013,10,23,12,12,11.20
2013,10,23,12,13,11.20
2013,10,23,12,14,11.20
2013,10,23,12,15,11.30
2013,10,23,12,16,11.40
2013,10,23,12,17,11.40
2013,10,23,12,18,11.40
2013,10,23,12,19,11.40
2013,10,23,12,20,11.40
2013,10,23,12,21,11.40
2013,10,23,12,22,11.40
2013,10,23,12,23,11.40
2013,10,23,12,24,11.40
2013,10,23,12,25,11.40
2013,10,23,12,26,11.40
2013,10,23,12,27,11.40
2013,10,23,12,28,11.40
2013,10,23,12,29,11.40
2013,10,23,12,30,11.40
2013,10,23,12,31,11.40
2013,10,23,12,32,11.60
2013,10,23,12,33,11.70
2013,10,23,12,34,11.80
2013,10,23,12,35,11.80
2013,10,23,12,36,11.80
2013,10,23,12,37,11.80
2013,10,23,12,38,11.90
2013,10,23,12,39,12.00
2013,10,23,12,40,12.10
2013,10,23,12,41,12.10
2013,10,23,12,42,12.00
2013,10,23,12,43,12.10
2013,10,23,12,44,12.20
2013,10,23,12,45,12.30
2013,10,23,12,46,12.40
2013,10,23,12,47,12.50
2013,10,23,12,48,12.50
2013,10,23,12,49,12.40
2013,10,23,12,50,12.50
2013,10,23,12,51,12.60
2013,10,23,12,52,12.70
2013,10,23,12,53,12.70
2013,10,23,12,54,12.80
2013,10,23,12,55,12.80
2013,10,23,12,56,12.70
2013,10,23,12,57,12.70
2013,10,23,12,58,12.70
2013,10,23,12,59,12.80
2013,10,23,13,00,12.80
2013,10,23,13,01,12.80
2013,10,23,13,02,12.70
2013,10,23,13,03,12.70
2013,10,23,13,04,12.70
2013,10,23,13,05,12.70
2013,10,23,13,06,12.60
2013,10,23,13,07,12.60
2013,10,23,13,08,12.50
2013,10,23,13,09,12.50
2013,10,23,13,10,12.40
2013,10,23,13,11,12.40
2013,10,23,13,12,12.30
2013,10,23,13,13,12.40
2013,10,23,13,14,12.60
2013,10,23,13,15,12.60
2013,10,23,13,16,12.60
2013,10,23,13,17,12.60
2013,10,23,13,18,12.60
2013,10,23,13,19,12.80
2013,10,23,13,20,12.80
2013,10,23,13,21,12.90
2013,10,23,13,22,13.00
2013,10,23,13,23,13.20
2013,10,23,13,24,13.20
2013,10,23,13,25,13.20
2013,10,23,13,26,13.30
2013,10,23,13,27,13.30
2013,10,23,13,28,13.20
2013,10,23,13,29,13.20
2013,10,23,13,30,13.20
2013,10,23,13,31,13.10
2013,10,23,13,32,13.10
2013,10,23,13,33,13.00
2013,10,23,13,34,13.00
2013,10,23,13,35,13.10
2013,10,23,13,36,13.10
2013,10,23,13,37,13.10
2013,10,23,13,38,13.10
2013,10,23,13,39,13.20
2013,10,23,13,40,13.30
2013,10,23,13,41,13.40
2013,10,23,13,42,13.50
2013,10,23,13,43,13.40
2013,10,23,13,44,13.40
2013,10,23,13,45,13.30
2013,10,23,13,46,13.30
2013,10,23,13,47,13.40
2013,10,23,13,48,13.30
2013,10,23,13,49,13.30
2013,10,23,13,50,13.30
2013,10,23,13,51,13.30
2013,10,23,13,52,13.30
2013,10,23,13,53,13.30
2013,10,23,13,54,13.30
2013,10,23,13,55,13.30
2013,10,23,13,56,13.20
2013,10,23,13,57,13.30
2013,10,23,13,58,13.30
2013,10,23,13,59,13.40
2013,10,23,14,00,13.50
2013,10,23,14,01,13.60
2013,10,23,14,02,13.60
2013,10,23,14,03,13.60
2013,10,23,14,04,13.60
2013,10,23,14,05,13.60
2013,10,23,14,06,13.50
2013,10,23,14,07,13.50
2013,10,23,14,08,13.60
2013,10,23,14,09,13.60
2013,10,23,14,10,13.60
2013,10,23,14,11,13.70
2013,10,23,14,12,13.70
2013,10,23,14,13,13.80
2013,10,23,14,14,13.80
2013,10,23,14,15,13.80
2013,10,23,14,16,13.80
2013,10,23,14,17,13.70
2013,10,23,14,18,13.70
2013,10,23,14,19,13.80
2013,10,23,14,20,13.80
2013,10,23,14,21,13.80
2013,10,23,14,22,13.70
2013,10,23,14,23,13.70
2013,10,23,14,24,13.60
2013,10,23,14,25,13.50
2013,10,23,14,26,13.50
2013,10,23,14,27,13.50
2013,10,23,14,28,13.60
2013,10,23,14,29,13.70
2013,10,23,14,30,13.80
2013,10,23,14,31,13.90
2013,10,23,14,32,14.10
2013,10,23,14,33,14.20
2013,10,23,14,34,14.30
2013,10,23,14,35,14.30
2013,10,23,14,36,14.20
2013,10,23,14,37,14.10
2013,10,23,14,38,14.10
2013,10,23,14,39,14.10
2013,10,23,14,40,14.10
2013,10,23,14,41,14.00
2013,10,23,14,42,14.00
2013,10,23,14,43,13.90
2013,10,23,14,44,13.90
2013,10,23,14,45,14.00
2013,10,23,14,46,14.00
2013,10,23,14,47,14.20
2013,10,23,14,48,14.40
2013,10,23,14,49,14.60
2013,10,23,14,50,14.80
2013,10,23,14,51,14.90
2013,10,23,14,52,15.00
2013,10,23,14,53,15.00
2013,10,23,14,54,15.00
2013,10,23,14,55,14.90
2013,10,23,14,56,14.80
2013,10,23,14,57,14.60
2013,10,23,14,58,14.50
2013,10,23,14,59,14.30
2013,10,23,15,00,14.20
2013,10,23,15,01,14.10
2013,10,23,15,02,14.10
2013,10,23,15,03,14.10
2013,10,23,15,04,14.10
2013,10,23,15,05,14.10
2013,10,23,15,06,14.10
2013,10,23,15,07,14.10
2013,10,23,15,08,14.00
2013,10,23,15,09,13.90
2013,10,23,15,10,13.90
2013,10,23,15,11,13.80
2013,10,23,15,12,13.70
2013,10,23,15,13,13.70
2013,10,23,15,14,13.70
2013,10,23,15,15,13.70
2013,10,23,15,16,13.70
2013,10,23,15,17,13.70
2013,10,23,15,18,13.80
2013,10,23,15,19,13.80
2013,10,23,15,20,13.80
2013,10,23,15,21,13.90
2013,10,23,15,22,13.90
2013,10,23,15,23,13.90
2013,10,23,15,24,13.90
2013,10,23,15,25,13.90
2013,10,23,15,26,13.90
2013,10,23,15,27,13.80
2013,10,23,15,28,13.80
2013,10,23,15,29,13.70
2013,10,23,15,30,13.70
2013,10,23,15,31,13.70
2013,10,23,15,32,13.60
2013,10,23,15,33,13.50
2013,10,23,15,34,13.50
2013,10,23,15,35,13.40
2013,10,23,15,36,13.40
2013,10,23,15,37,13.30
2013,10,23,15,38,13.20
2013,10,23,15,39,13.20
2013,10,23,15,40,13.10
2013,10,23,15,41,13.10
2013,10,23,15,42,13.00
2013,10,23,15,43,13.00
2013,10,23,15,44,13.00
2013,10,23,15,45,12.90
2013,10,23,15,46,12.90
2013,10,23,15,47,12.90
2013,10,23,15,48,12.80
2013,10,23,15,49,12.80
2013,10,23,15,50,12.80
2013,10,23,15,51,12.80
2013,10,23,15,52,12.80
2013,10,23,15,53,12.80
2013,10,23,15,54,12.80
2013,10,23,15,55,12.90
2013,10,23,15,56,12.90
2013,10,23,15,57,12.90
2013,10,23,15,58,12.90
2013,10,23,15,59,12.90
2013,10,23,16,00,12.90
2013,10,23,16,01,12.80
2013,10,23,16,02,12.80
2013,10,23,16,03,12.80
2013,10,23,16,04,12.80
2013,10,23,16,05,12.80
2013,10,23,16,06,12.70
2013,10,23,16,07,12.70
2013,10,23,16,08,12.60
2013,10,23,16,09,12.60
2013,10,23,16,10,12.60
2013,10,23,16,11,12.60
2013,10,23,16,12,12.60
2013,10,23,16,13,12.60
2013,10,23,16,14,12.60
2013,10,23,16,15,12.70
2013,10,23,16,16,12.60
2013,10,23,16,17,12.60
2013,10,23,16,18,12.60
2013,10,23,16,19,12.50
2013,10,23,16,20,12.40
2013,10,23,16,21,12.30
2013,10,23,16,22,12.30
2013,10,23,16,23,12.30
2013,10,23,16,24,12.30
2013,10,23,16,25,12.30
2013,10,23,16,26,12.30
2013,10,23,16,27,12.30
2013,10,23,16,28,12.30
2013,10,23,16,29,12.30
2013,10,23,16,30,12.20
2013,10,23,16,31,12.20
2013,10,23,16,32,12.10
2013,10,23,16,33,12.00
2013,10,23,16,34,12.00
2013,10,23,16,35,11.90
2013,10,23,16,36,11.90
2013,10,23,16,37,11.90
2013,10,23,16,38,11.90
2013,10,23,16,39,11.90
2013,10,23,16,40,11.90
2013,10,23,16,41,11.80
2013,10,23,16,42,11.80
2013,10,23,16,43,11.80
2013,10,23,16,44,11.80
2013,10,23,16,45,11.80
2013,10,23,16,46,11.70
2013,10,23,16,47,11.70
2013,10,23,16,48,11.60
2013,10,23,16,49,11.60
2013,10,23,16,50,11.60
2013,10,23,16,51,11.60
2013,10,23,16,52,11.60
2013,10,23,16,53,11.50
2013,10,23,16,54,11.40
2013,10,23,16,55,11.40
2013,10,23,16,56,11.30
2013,10,23,16,57,11.30
2013,10,23,16,58,11.20
2013,10,23,16,59,11.20
2013,10,23,17,00,11.10
2013,10,23,17,01,11.10
2013,10,23,17,02,11.10
2013,10,23,17,03,11.00
2013,10,23,17,04,10.90
2013,10,23,17,05,10.90
2013,10,23,17,06,10.90
2013,10,23,17,07,10.90
2013,10,23,17,08,10.80
2013,10,23,17,09,10.80
2013,10,23,17,10,10.80
2013,10,23,17,11,10.70
2013,10,23,17,12,10.70
2013,10,23,17,13,10.70
2013,10,23,17,14,10.70
2013,10,23,17,15,10.60
2013,10,23,17,16,10.60
2013,10,23,17,17,10.60
2013,10,23,17,18,10.60
2013,10,23,17,19,10.60
2013,10,23,17,20,10.60
2013,10,23,17,21,10.60
2013,10,23,17,22,10.60
2013,10,23,17,23,10.60
2013,10,23,17,24,10.60
2013,10,23,17,25,10.60
2013,10,23,17,26,10.60
2013,10,23,17,27,10.60
2013,10,23,17,28,10.60
2013,10,23,17,29,10.60
2013,10,23,17,30,10.50
2013,10,23,17,31,10.40
2013,10,23,17,32,10.40
2013,10,23,17,33,10.40
2013,10,23,17,34,10.40
2013,10,23,17,35,10.40
2013,10,23,17,36,10.40
2013,10,23,17,37,10.40
2013,10,23,17,38,10.40
2013,10,23,17,39,10.40
2013,10,23,17,40,10.40
2013,10,23,17,41,10.30
2013,10,23,17,42,10.30
2013,10,23,17,43,10.30
2013,10,23,17,44,10.30
2013,10,23,17,45,10.30
2013,10,23,17,46,10.20
2013,10,23,17,47,10.20
2013,10,23,17,48,10.20
2013,10,23,17,49,10.20
2013,10,23,17,50,10.20
2013,10,23,17,51,10.10